Temperature
25 24 23 24 24 25 25 24 24 24 25 24 23 23 23 23 23 23 22 21 21 20 20 19 18 18 18 17 17 17 16 16 16 16 15 15 15 15 15 15 15 15 15 15
24 24 24 25 25 25 24 24 24 24 25 24 24 23 23 23 23 23 22 22 21 21 20 19 18 18 18 17 17 17 16 16 16 15 15 15 15 15 15 14 14 14 14 14
24 24 25 25 25 24 24 24 24 24 24 24 23 22 23 23 23 22 22 22 21 20 20 19 18 18 18 17 17 17 16 16 16 15 15 15 15 14 14 14 14 14 14 14
24 25 25 24 24 24 23 24 24 24 23 22 23 21 22 23 22 22 22 21 21 20 20 19 19 18 18 17 17 17 16 16 16 15 15 15 15 14 14 14 14 14 14 14
24 25 24 24 24 24 24 24 24 24 23 22 23 22 22 23 22 22 22 21 21 20 20 19 18 18 18 17 17 16 16 16 16 15 15 15 15 14 14 14 14 14 14 14
24 25 25 24 25 25 24 24 24 23 22 21 23 23 21 22 22 22 22 21 21 20 19 19 18 18 17 17 17 16 16 16 16 15 15 15 15 14 14 14 14 14 13 13
23 24 25 25 24 24 24 22 21 21 21 21 24 23 21 22 23 22 21 21 20 20 19 18 18 17 17 16 16 16 16 16 15 15 15 15 15 14 14 14 14 13 13 13
23 23 24 24 23 23 23 23 21 20 21 22 24 22 21 23 22 22 21 21 20 19 19 18 17 17 16 16 16 15 15 15 15 15 15 15 14 14 14 14 13 13 13 13
23 23 24 24 24 24 23 23 23 22 22 22 23 22 21 22 22 21 21 20 20 19 18 18 17 16 16 16 15 15 15 15 15 15 14 14 14 14 14 14 13 13 13 13
23 22 24 24 24 24 24 23 23 22 21 20 22 22 20 20 21 21 20 20 19 19 18 17 17 16 16 15 15 15 15 14 14 14 14 14 14 14 13 13 13 13 13 13
23 22 23 23 22 23 23 23 22 22 22 21 20 21 22 21 21 20 20 20 19 19 18 17 17 16 15 15 15 14 14 14 14 14 14 14 13 13 13 13 13 13 13 12
23 22 22 23 23 24 23 23 22 21 21 21 20 20 22 21 21 20 20 19 19 18 18 17 16 16 15 15 14 14 14 14 13 13 13 13 13 13 13 12 12 12 12 12
21 21 21 21 21 22 22 23 22 22 21 20 20 20 21 21 20 19 19 18 18 18 17 17 16 15 15 14 14 14 13 13 13 13 13 13 12 12 12 12 12 12 11 11
20 21 21 20 21 21 21 22 22 21 20 20 20 20 20 20 19 19 18 18 17 17 16 16 15 15 14 14 14 13 13 13 13 13 12 12 12 12 11 11 11 11 11 11
21 20 21 22 22 22 21 21 21 21 21 20 20 20 20 19 19 18 18 17 17 16 15 15 15 14 14 13 13 13 13 13 12 12 12 12 11 11 11 11 10 10 10 10
21 20 21 21 22 22 21 21 21 21 20 20 20 19 20 19 18 18 17 16 16 15 15 14 14 14 13 13 13 13 12 12 12 12 12 11 11 11 10 10 10 10 10 9
20 20 20 20 21 21 20 20 20 20 20 20 19 18 18 18 17 17 16 16 15 14 14 14 13 13 13 13 12 12 12 12 11 11 11 11 11 10 10 10 10 9 9 9
20 20 19 19 20 18 19 20 20 19 19 19 18 18 17 17 16 16 15 15 15 14 13 13 13 13 12 12 12 12 11 11 11 11 11 11 10 10 10 9 9 9 9 9
20 19 19 19 18 18 19 19 19 18 17 18 17 17 17 16 16 15 15 14 14 14 13 13 12 12 12 12 11 11 11 11 10 10 10 10 10 10 9 9 9 9 8 8
19 19 18 18 18 17 18 18 19 18 16 17 17 16 16 15 15 14 14 14 13 13 12 12 12 12 11 11 11 10 10 10 10 10 10 10 9 9 9 9 8 8 8 8
18 18 18 17 17 17 17 17 18 16 16 16 16 15 15 14 14 14 14 13 13 12 12 12 11 11 11 11 10 10 10 10 10 10 9 9 9 8 8 8 8 8 8 7
18 17 17 17 16 16 17 17 16 16 16 15 15 14 14 14 13 13 13 12 12 12 11 11 11 10 10 10 10 10 10 10 9 9 9 9 8 8 8 8 8 7 7 7
18 17 17 16 16 16 16 16 15 15 15 14 14 13 13 13 13 12 12 11 11 11 11 10 10 10 10 10 9 9 9 9 9 9 9 8 8 8 7 7 7 7 7 6
17 18 17 16 16 16 15 15 14 14 14 13 13 13 13 12 12 12 11 11 10 10 10 10 10 9 9 9 9 9 9 9 9 8 8 8 7 7 7 7 7 7 6 6
16 17 16 16 15 15 15 14 14 13 13 13 12 12 12 11 11 11 10 10 10 9 9 9 9 9 9 9 8 8 9 9 8 8 8 7 7 7 7 7 7 6 6 6
16 16 15 15 15 15 14 14 13 13 12 12 12 11 11 11 11 10 10 9 9 9 9 9 8 8 8 8 8 8 8 8 8 7 7 7 7 7 7 7 6 6 6 6
Wind_Speed
7 6 6 5 6 6 6 6 5 2 2 4 6 6 7 8 7 7 7 7 8 9 10 9 8 8 7 6 6 7 6 5 4 3 3 3 2 2 3 2 4 4 6 6
6 7 6 5 5 7 7 7 6 3 3 4 5 6 6 8 8 6 6 7 8 8 9 9 8 8 7 6 5 6 6 5 5 3 3 2 3 2 2 2 3 4 5 5
7 4 4 6 7 7 7 6 6 5 4 6 6 6 7 7 7 6 5 5 7 9 9 10 9 8 7 6 6 5 6 6 6 5 3 3 2 2 2 2 1 2 4 4
7 6 6 7 7 6 7 4 6 7 6 5 8 5 6 8 8 8 7 6 6 7 8 9 8 8 8 7 6 5 6 6 6 6 4 4 3 2 2 2 2 1 2 3
6 6 7 7 6 6 6 6 8 9 9 9 9 6 4 6 7 8 7 7 7 7 7 8 8 8 8 8 6 5 5 5 5 5 5 3 2 2 2 2 2 2 1 2
10 7 6 7 6 6 6 8 10 9 8 8 9 7 3 5 7 8 8 7 8 8 7 7 7 6 5 6 5 5 4 4 4 4 4 4 3 3 3 3 2 1 1 1
10 9 7 5 6 6 7 6 4 5 6 6 5 4 2 3 3 5 6 6 6 7 7 7 7 6 5 6 5 5 5 4 3 3 3 3 3 3 4 3 2 2 1 1
7 7 6 5 5 5 7 7 5 4 4 4 4 2 4 5 5 5 5 6 5 7 7 7 8 7 6 6 5 4 4 3 3 2 2 3 4 2 2 2 2 2 2 1
5 5 4 5 6 7 7 7 8 9 10 8 3 4 5 5 6 6 5 6 5 6 7 8 8 7 7 6 5 5 4 3 2 2 1 2 3 2 2 2 2 1 1 1
7 7 6 5 5 8 9 7 6 5 5 6 4 2 4 7 6 6 5 5 5 6 6 8 7 7 6 6 5 4 4 3 2 2 2 2 2 2 2 2 1 1 2 2
9 8 6 6 7 7 7 8 6 6 6 5 4 1 2 5 6 5 5 5 5 5 6 7 6 6 6 6 6 5 4 3 2 2 2 2 2 2 2 2 1 1 1 2
6 6 8 7 6 5 7 7 7 5 6 5 5 1 4 6 6 5 5 4 4 5 5 6 6 6 5 5 5 5 4 3 2 2 2 2 2 2 2 2 1 1 1 1
4 5 7 5 5 5 6 6 6 6 6 6 5 1 4 6 6 5 4 3 3 4 6 6 5 5 5 4 4 4 4 3 3 2 2 2 2 2 1 1 1 1 1 1
3 7 9 8 4 4 6 7 6 7 6 7 5 2 2 3 3 3 3 3 3 4 5 5 4 3 3 4 3 4 3 3 3 3 3 2 2 1 1 1 1 1 1 1
4 8 11 11 8 7 7 8 8 8 7 7 6 3 1 2 2 2 2 2 3 4 3 3 3 2 2 2 3 3 3 3 4 4 3 2 2 1 1 1 0 1 1 2
6 8 11 11 9 7 8 7 8 8 8 8 7 5 3 3 3 2 2 3 2 2 2 1 2 2 2 2 2 2 2 3 3 3 3 2 3 2 1 1 1 1 1 1
6 8 9 9 7 8 7 5 6 4 4 5 6 3 2 2 2 2 1 2 1 2 1 1 1 0 1 1 1 2 2 2 2 3 2 2 2 2 1 1 1 1 0 1
8 8 6 8 8 8 1 2 1 1 2 4 3 3 3 2 2 2 3 2 3 2 1 1 0 0 0 0 0 1 2 2 2 3 2 2 2 1 1 1 1 1 1 1
5 6 5 6 7 5 1 1 1 3 2 2 2 2 3 4 2 2 3 3 2 2 2 1 1 0 1 1 1 1 2 2 2 2 2 2 2 2 1 1 2 1 1 1
5 6 6 6 7 5 1 3 3 2 1 3 3 3 3 3 2 2 4 3 3 3 2 2 1 1 1 1 1 1 2 2 2 2 2 2 1 2 2 2 2 1 1 1
5 6 7 7 6 2 2 2 1 1 2 3 3 3 3 2 2 2 3 3 3 3 2 2 2 1 1 1 1 1 1 2 1 1 2 2 2 2 2 2 1 1 1 1
5 4 5 5 6 3 2 1 1 2 4 4 4 5 4 5 5 4 3 3 2 2 2 3 2 1 1 1 1 1 1 1 2 2 2 2 2 2 2 2 1 1 1 1
4 3 2 2 0 3 4 3 4 5 4 4 4 4 3 4 4 3 3 3 3 3 2 2 2 1 2 2 1 1 1 2 2 2 2 2 2 2 2 2 2 2 1 1
3 2 3 3 2 2 2 2 3 3 3 4 3 3 3 3 3 3 3 2 2 3 2 2 2 2 1 2 2 2 2 2 2 2 2 2 1 1 1 1 1 1 1 1
4 3 4 5 3 1 1 1 1 1 2 2 3 3 2 3 2 2 1 1 1 1 1 2 1 1 1 1 1 2 2 2 2 2 1 1 1 1 1 1 1 1 1 2
5 5 4 3 2 3 2 1 2 2 1 2 3 3 3 2 0 0 0 0 0 0 1 1 1 1 1 1 1 1 1 1 2 1 1 1 1 1 1 2 2 3 2 2
Wind_Direction
221 226 236 229 238 263 277 278 275 246 197 226 234 212 194 185 195 195 187 181 172 169 157 154 152 151 150 148 145 138 135 128 119 107 104 101 94 84 75 64 50 50 56 51
234 234 238 249 254 260 267 270 262 243 234 250 240 229 201 192 196 193 188 179 170 165 156 155 158 160 159 152 150 145 142 134 125 118 118 120 110 101 100 73 41 47 56 51
240 242 237 256 262 260 261 264 277 273 252 252 253 239 211 191 187 187 189 178 166 170 168 164 164 162 156 154 154 148 143 136 132 130 126 120 105 102 103 115 74 44 54 54
247 244 247 257 260 265 270 266 268 273 266 255 245 246 211 191 182 183 182 177 172 173 164 161 165 163 159 157 156 156 147 146 143 137 140 143 149 158 156 146 136 114 76 68
252 251 247 254 259 264 272 288 274 265 266 266 257 255 209 181 180 182 183 181 173 165 159 159 161 164 163 157 157 158 148 140 136 145 150 153 154 146 135 123 113 115 102 83
252 249 244 251 250 253 267 267 261 254 257 255 246 242 224 189 192 181 177 175 168 161 157 153 146 141 138 135 138 140 132 130 136 154 150 155 152 143 127 116 124 121 93 66
244 230 212 227 250 235 247 262 261 234 226 238 231 224 161 117 129 145 157 158 156 150 149 148 141 137 133 123 128 137 139 139 133 141 141 144 138 144 137 139 138 136 131 100
251 231 197 202 244 253 244 246 262 277 277 278 240 187 125 118 102 103 125 138 147 147 148 150 143 140 140 134 130 125 129 130 136 153 163 148 131 128 129 137 140 148 147 132
270 242 195 207 235 251 251 245 259 271 283 282 225 153 145 133 128 126 130 136 147 149 151 148 140 144 144 141 139 135 125 118 129 137 128 120 128 125 120 116 111 128 122 115
284 275 228 203 228 237 253 271 271 265 280 280 272 212 169 153 147 148 146 142 142 145 145 142 144 149 147 145 144 136 130 137 141 145 134 101 83 79 87 103 106 100 106 105
273 272 245 202 214 232 233 249 259 263 264 275 286 5 85 136 135 137 132 129 140 145 144 145 145 146 145 144 145 140 139 138 125 112 101 100 96 78 62 55 56 66 81 109
263 275 265 236 206 230 250 252 257 263 275 285 287 79 64 88 96 97 108 109 124 134 133 130 137 144 143 144 145 142 142 137 130 114 108 108 99 101 99 78 51 47 33 41
296 265 267 228 190 207 244 251 255 270 274 271 274 175 97 92 89 94 100 106 121 126 129 128 128 139 139 142 145 145 141 141 136 125 110 97 96 97 99 102 85 67 58 53
285 258 264 270 271 236 247 259 258 257 263 273 277 243 148 112 97 91 104 123 120 115 117 122 126 126 140 147 143 144 144 153 152 147 141 135 121 97 93 70 76 72 60 84
257 264 271 273 277 265 256 257 258 260 268 274 289 289 302 107 106 76 58 90 104 118 114 120 124 136 135 146 150 153 161 162 162 157 147 145 137 125 115 104 47 56 36 42
253 269 277 274 267 266 262 253 246 252 264 272 285 295 11 36 45 42 51 71 81 100 106 117 136 148 167 163 163 173 163 163 157 149 146 153 148 149 198 148 100 61 55 37
253 265 276 273 266 260 254 265 253 252 270 270 273 298 31 8 9 23 28 60 98 95 65 98 116 141 170 172 178 182 166 148 146 139 139 146 149 158 189 162 128 121 116 62
264 269 271 274 272 259 235 42 62 278 328 345 6 27 9 355 11 42 31 47 57 75 77 66 102 145 136 135 91 141 145 134 152 157 157 154 154 172 184 157 166 166 166 116
259 261 265 267 269 260 217 73 306 267 269 354 6 15 2 349 337 32 36 60 62 72 72 78 45 35 116 114 118 135 156 154 163 157 163 168 172 175 166 175 185 182 179 206
252 250 254 261 265 267 35 38 13 322 255 24 19 8 358 352 309 342 18 38 51 58 71 61 46 42 74 114 134 170 184 170 167 155 147 149 164 174 177 189 190 192 181 199
228 237 243 258 263 262 46 27 19 264 356 26 21 23 16 347 332 338 13 30 42 53 64 61 52 50 33 111 146 181 176 170 151 129 134 144 167 184 170 166 167 174 181 195
241 248 247 253 254 253 59 53 62 30 35 38 30 27 9 359 0 6 28 32 52 57 64 76 67 43 42 83 116 129 132 134 112 112 134 149 156 173 161 161 175 180 192 210
247 257 274 265 236 61 61 56 39 33 31 25 20 12 360 355 353 18 29 30 37 51 62 76 87 62 49 51 78 103 104 112 119 125 123 146 154 144 150 169 180 185 200 212
255 277 268 268 193 144 98 67 38 21 15 5 358 359 356 353 351 20 31 29 32 38 48 75 96 96 74 47 48 75 106 110 119 139 139 127 125 125 131 137 154 169 199 216
309 297 272 267 267 280 121 37 3 345 351 350 346 351 348 348 1 20 6 26 36 32 57 81 115 130 113 84 57 56 86 124 131 130 128 114 99 112 114 106 92 162 192 193
272 273 269 276 308 300 286 349 336 328 356 345 332 335 341 336 285 106 208 117 66 47 89 103 126 124 129 117 104 78 50 121 140 133 124 106 98 93 99 106 61 33 70 112
Height
1479 1482 1484 1481 1480 1480 1480 1483 1485 1483 1480 1483 1486 1487 1487 1488 1490 1492 1495 1497 1500 1503 1506 1508 1511 1513 1515 1517 1519 1519 1521 1522 1523 1523 1524 1525 1526 1526 1527 1528 1528 1529 1529 1529
1479 1481 1478 1476 1476 1478 1480 1483 1484 1481 1478 1481 1483 1484 1484 1485 1487 1490 1492 1495 1498 1501 1504 1506 1509 1512 1514 1516 1517 1519 1520 1521 1522 1523 1524 1525 1526 1526 1527 1528 1528 1529 1529 1529
1479 1478 1475 1476 1477 1479 1480 1483 1483 1483 1480 1479 1483 1487 1484 1483 1485 1488 1490 1492 1495 1498 1501 1505 1507 1510 1512 1514 1516 1518 1519 1520 1521 1522 1524 1525 1525 1526 1527 1527 1528 1528 1529 1529
1475 1473 1474 1476 1477 1478 1483 1477 1479 1481 1485 1488 1483 1495 1483 1479 1482 1485 1488 1491 1494 1496 1499 1502 1505 1508 1510 1512 1514 1517 1518 1519 1520 1522 1523 1523 1524 1525 1526 1527 1527 1528 1528 1528
1475 1473 1474 1477 1476 1477 1478 1476 1477 1479 1483 1486 1481 1487 1485 1477 1482 1483 1485 1488 1491 1494 1497 1500 1503 1506 1508 1510 1513 1515 1517 1518 1520 1520 1521 1522 1523 1524 1525 1526 1527 1527 1527 1527
1472 1470 1471 1473 1473 1474 1475 1477 1476 1477 1482 1493 1479 1484 1488 1479 1479 1479 1482 1485 1489 1492 1495 1498 1501 1504 1506 1509 1511 1513 1515 1517 1518 1519 1520 1521 1522 1523 1524 1525 1525 1526 1526 1526
1473 1469 1469 1471 1474 1474 1475 1484 1493 1494 1495 1489 1470 1478 1484 1474 1473 1476 1480 1484 1487 1490 1494 1497 1499 1502 1505 1506 1509 1511 1513 1514 1516 1518 1519 1519 1520 1521 1522 1523 1524 1524 1525 1525
1477 1476 1468 1469 1474 1477 1476 1480 1496 1502 1496 1483 1471 1479 1479 1472 1474 1476 1480 1483 1486 1489 1492 1495 1498 1500 1503 1504 1507 1509 1511 1513 1514 1516 1517 1518 1519 1520 1521 1522 1522 1523 1523 1523
1475 1475 1466 1467 1469 1472 1476 1476 1474 1483 1482 1484 1476 1477 1475 1472 1475 1477 1480 1483 1486 1489 1491 1494 1496 1499 1502 1504 1505 1507 1509 1511 1512 1514 1515 1516 1517 1518 1519 1520 1520 1520 1521 1522
1470 1475 1466 1466 1469 1470 1471 1472 1477 1483 1493 1494 1481 1477 1481 1477 1476 1477 1480 1483 1485 1488 1491 1493 1496 1498 1500 1502 1504 1506 1508 1509 1511 1512 1513 1514 1515 1516 1517 1517 1518 1519 1519 1519
1469 1474 1470 1468 1470 1472 1472 1474 1474 1478 1479 1490 1494 1488 1468 1471 1474 1477 1479 1482 1485 1487 1490 1492 1495 1498 1500 1502 1503 1505 1506 1508 1509 1510 1511 1512 1513 1513 1514 1515 1516 1516 1517 1517
1468 1473 1474 1467 1463 1463 1467 1469 1474 1485 1484 1480 1486 1488 1469 1471 1474 1477 1480 1483 1485 1487 1489 1492 1494 1496 1499 1500 1502 1503 1505 1506 1507 1508 1509 1510 1511 1511 1511 1512 1513 1514 1514 1514
1471 1475 1479 1475 1473 1468 1468 1467 1469 1473 1478 1481 1487 1487 1471 1473 1476 1478 1481 1483 1485 1486 1488 1491 1493 1495 1496 1498 1500 1501 1502 1504 1505 1506 1507 1508 1508 1508 1509 1509 1510 1511 1511 1511
1473 1474 1477 1481 1474 1470 1470 1469 1468 1473 1481 1481 1479 1480 1475 1475 1477 1479 1481 1483 1484 1485 1487 1489 1491 1493 1494 1496 1497 1499 1500 1501 1503 1504 1505 1505 1506 1506 1506 1507 1507 1507 1508 1508
1472 1473 1469 1465 1462 1463 1466 1468 1468 1471 1473 1478 1476 1476 1474 1474 1477 1479 1480 1482 1483 1485 1486 1488 1489 1491 1492 1494 1495 1496 1498 1499 1500 1501 1502 1503 1503 1504 1504 1505 1505 1505 1505 1506
1470 1471 1468 1466 1461 1462 1465 1464 1466 1468 1470 1472 1473 1475 1473 1474 1477 1479 1480 1482 1483 1484 1485 1487 1488 1489 1490 1491 1493 1494 1495 1496 1497 1498 1499 1500 1501 1501 1502 1502 1502 1502 1503 1503
1469 1470 1472 1470 1462 1463 1470 1465 1465 1467 1468 1470 1475 1476 1474 1475 1477 1478 1480 1481 1482 1483 1484 1485 1486 1487 1488 1489 1490 1491 1492 1493 1494 1495 1496 1497 1497 1498 1498 1499 1499 1499 1500 1500
1469 1469 1470 1470 1468 1478 1470 1461 1462 1467 1470 1470 1471 1474 1474 1476 1477 1478 1479 1479 1480 1481 1482 1483 1484 1485 1486 1487 1487 1488 1489 1490 1491 1492 1493 1493 1494 1494 1495 1495 1496 1496 1497 1497
1466 1469 1471 1472 1473 1471 1467 1464 1465 1468 1472 1471 1472 1474 1475 1476 1476 1477 1478 1478 1479 1480 1481 1482 1482 1483 1483 1484 1485 1485 1486 1488 1488 1489 1490 1490 1491 1491 1491 1492 1493 1493 1494 1494
1465 1466 1471 1471 1476 1476 1471 1466 1465 1468 1474 1472 1472 1474 1475 1475 1477 1478 1478 1477 1478 1478 1479 1480 1480 1481 1481 1482 1482 1483 1484 1485 1485 1486 1487 1488 1488 1488 1489 1489 1490 1490 1491 1491
1468 1468 1470 1471 1473 1471 1469 1467 1467 1477 1478 1473 1473 1474 1475 1476 1478 1478 1477 1477 1477 1477 1478 1478 1478 1479 1479 1480 1480 1480 1481 1482 1483 1484 1484 1484 1485 1485 1486 1486 1487 1487 1488 1488
1467 1469 1469 1470 1474 1477 1469 1468 1472 1476 1474 1474 1474 1475 1476 1476 1476 1476 1476 1476 1476 1476 1476 1476 1477 1477 1478 1478 1478 1478 1479 1480 1480 1481 1481 1482 1481 1483 1483 1484 1484 1485 1485 1485
1463 1465 1467 1470 1473 1471 1470 1471 1472 1473 1474 1475 1475 1475 1476 1476 1476 1475 1475 1475 1475 1475 1475 1476 1476 1476 1476 1476 1476 1476 1477 1477 1478 1478 1479 1479 1480 1480 1480 1481 1481 1482 1482 1482
1462 1463 1465 1467 1467 1468 1470 1471 1472 1473 1474 1474 1475 1475 1475 1475 1474 1474 1474 1474 1474 1474 1474 1475 1475 1475 1475 1475 1475 1475 1475 1476 1476 1476 1477 1478 1478 1478 1478 1479 1479 1479 1479 1480
1464 1464 1465 1466 1467 1468 1469 1470 1471 1472 1473 1473 1474 1474 1474 1474 1473 1473 1473 1474 1473 1473 1474 1474 1474 1474 1474 1474 1474 1474 1474 1475 1475 1475 1475 1476 1476 1476 1477 1477 1477 1477 1477 1477
1464 1464 1466 1467 1467 1467 1468 1469 1470 1471 1471 1472 1472 1472 1472 1472 1472 1472 1472 1472 1472 1472 1472 1472 1473 1473 1473 1473 1473 1473 1473 1474 1474 1474 1474 1474 1474 1475 1475 1475 1475 1475 1476 1476